Location: Morisset
(33.1080°S, 151.4871°E)
Time: 07:58:29
(UTC+00:00)

Cosmos 1624 Rocket - Pass Details

Date: 29 October 2020
Orbit: 756 x 785 km, 74.0° (Epoch: 28 November)

Event Time Altitude Azimuth Distance (km) Brightness Sun altitude
Exits shadow 16:48:33 39° 19° (NNE) 1,158 4.7 -24.7°
Maximum altitude 16:50:18 58° 77° (ENE) 903 4.4 -24.4°
Drops below altitude 10° 16:55:29 10° 154° (SSE) 2,327 7.3 -23.5°
Sets 16:57:54 0° 158° (SSE) 3,257 8.2 -23.1°
